PWSweather.com
Personal Weather Stations
Station Observations
METEOC500
Santo Antonio, FunchalPT 2020

Santo AntonioFunchalPT 2020

Lat: 32.678227, Lon: -16.945054

Elevation: 1669.94751

Station Type: WH Series

Latest ConditionsUpdated 3:24:56 PM GMT Sunday, Sep 22, 2019
Currently Today's Max Today's Min Today's Average
Temperature 66.9°F19.4°C 70.7°F21.5°C 60.8°F16.0°C 64.7°F18.2°C
Dew Point 60.6°F15.9°C 60.6°F15.9°C 54.7°F12.6°C 58.3°F14.6°C
Winds Calm Calm 8.7 mph -14.0 kmh - - 4.3 mph 6.9 kmh
Wind Gusts 4.9 mph7.9 kmh 15.0 mph24.1 kmh - -
Humidity 80% 89% 62% 80%
Pressure 30.14 in1020.7 mb 30.19 in1022.4 mb 30.09 in1019.0 mb -
Hour Temp Dew Point Humidity Winds Wind Gusts Pressure Precip Precip Rate Daily Precip Total
03:24 PM 66.9°F19.4°C 60.6°F15.9°C 80% Calm Calm 4.9 mph7.9 kmh 30.14 in1020.7 mb 0.00 in0.0 mm 0.00 in0.0 mm 0.00 in0.0 mm
03:09 PM 66.7°F19.3°C 60.1°F15.6°C 79% Calm Calm 4.9 mph7.9 kmh 30.14 in1020.7 mb 0.00 in0.0 mm 0.00 in0.0 mm 0.00 in0.0 mm
02:54 PM 66.6°F19.2°C 59.9°F15.5°C 79% 0.7 mph S1.1 kmh S 7.6 mph12.2 kmh 30.15 in1021.0 mb 0.00 in0.0 mm 0.00 in0.0 mm 0.00 in0.0 mm
02:39 PM 66.7°F19.3°C 60.4°F15.8°C 80% 5.4 mph SSE8.7 kmh SSE 7.6 mph12.2 kmh 30.15 in1021.0 mb 0.00 in0.0 mm 0.00 in0.0 mm 0.00 in0.0 mm
02:24 PM 66.7°F19.3°C 59.7°F15.4°C 78% 0.9 mph S1.4 kmh S 7.6 mph12.2 kmh 30.15 in1021.0 mb 0.00 in0.0 mm 0.00 in0.0 mm 0.00 in0.0 mm
02:09 PM 66.6°F19.2°C 59.5°F15.3°C 78% 0.9 mph SSW1.4 kmh SSW 7.6 mph12.2 kmh 30.15 in1021.0 mb 0.00 in0.0 mm 0.00 in0.0 mm 0.00 in0.0 mm
01:54 PM 66.9°F19.4°C 60.3°F15.7°C 79% 0.2 mph SSW0.3 kmh SSW 7.6 mph12.2 kmh 30.16 in1021.3 mb 0.00 in0.0 mm 0.00 in0.0 mm 0.00 in0.0 mm
01:39 PM 67.3°F19.6°C 60.6°F15.9°C 79% 3.1 mph S5.0 kmh S 7.6 mph12.2 kmh 30.16 in1021.3 mb 0.00 in0.0 mm 0.00 in0.0 mm 0.00 in0.0 mm
01:24 PM 67.1°F19.5°C 59.7°F15.4°C 77% Calm Calm 4.9 mph7.9 kmh 30.16 in1021.3 mb 0.00 in0.0 mm 0.00 in0.0 mm 0.00 in0.0 mm
01:09 PM 67.1°F19.5°C 59.7°F15.4°C 77% 1.8 mph SE2.9 kmh SE 7.6 mph12.2 kmh 30.16 in1021.3 mb 0.00 in0.0 mm 0.00 in0.0 mm 0.00 in0.0 mm
12:54 PM 67.3°F19.6°C 60.3°F15.7°C 78% 2.2 mph S3.5 kmh S 7.6 mph12.2 kmh 30.17 in1021.7 mb 0.00 in0.0 mm 0.00 in0.0 mm 0.00 in0.0 mm
12:39 PM 67.8°F19.9°C 60.6°F15.9°C 78% 3.4 mph S5.5 kmh S 10.1 mph16.3 kmh 30.18 in1022.0 mb 0.00 in0.0 mm 0.00 in0.0 mm 0.00 in0.0 mm
12:24 PM 68.4°F20.2°C 60.1°F15.6°C 75% 4.9 mph S7.9 kmh S 7.6 mph12.2 kmh 30.19 in1022.4 mb 0.00 in0.0 mm 0.00 in0.0 mm 0.00 in0.0 mm
12:08 PM 68.4°F20.2°C 59.4°F15.2°C 73% 5.4 mph ESE8.7 kmh ESE 10.1 mph16.3 kmh 30.18 in1022.0 mb 0.00 in0.0 mm 0.00 in0.0 mm 0.00 in0.0 mm
11:53 AM 68.4°F20.2°C 59.4°F15.2°C 73% 3.1 mph SSE5.0 kmh SSE 10.1 mph16.3 kmh 30.18 in1022.0 mb 0.00 in0.0 mm 0.00 in0.0 mm 0.00 in0.0 mm
11:38 AM 69.4°F20.8°C 60.4°F15.8°C 73% 0.9 mph S1.4 kmh S 10.1 mph16.3 kmh 30.18 in1022.0 mb 0.00 in0.0 mm 0.00 in0.0 mm 0.00 in0.0 mm
11:23 AM 70.2°F21.2°C 60.3°F15.7°C 71% 6.3 mph S10.1 kmh S 10.1 mph16.3 kmh 30.19 in1022.4 mb 0.00 in0.0 mm 0.00 in0.0 mm 0.00 in0.0 mm
11:08 AM 69.6°F20.9°C 59.0°F15.0°C 69% 3.8 mph E6.1 kmh E 10.1 mph16.3 kmh 30.18 in1022.0 mb 0.00 in0.0 mm 0.00 in0.0 mm 0.00 in0.0 mm
10:53 AM 69.1°F20.6°C 59.4°F15.2°C 71% 0.7 mph SW1.1 kmh SW 7.6 mph12.2 kmh 30.18 in1022.0 mb 0.00 in0.0 mm 0.00 in0.0 mm 0.00 in0.0 mm
10:38 AM 69.8°F21.0°C 59.9°F15.5°C 71% 2.9 mph SSW4.7 kmh SSW 10.1 mph16.3 kmh 30.18 in1022.0 mb 0.00 in0.0 mm 0.00 in0.0 mm 0.00 in0.0 mm
10:23 AM 70.7°F21.5°C 60.1°F15.6°C 69% 5.4 mph SE8.7 kmh SE 12.5 mph20.1 kmh 30.18 in1022.0 mb 0.00 in0.0 mm 0.00 in0.0 mm 0.00 in0.0 mm
10:08 AM 70.7°F21.5°C 60.1°F15.6°C 69% 5.4 mph SE8.7 kmh SE 12.5 mph20.1 kmh 30.19 in1022.4 mb 0.00 in0.0 mm 0.00 in0.0 mm 0.00 in0.0 mm
09:53 AM 69.4°F20.8°C 55.9°F13.3°C 62% 1.8 mph SE2.9 kmh SE 10.1 mph16.3 kmh 30.18 in1022.0 mb 0.00 in0.0 mm 0.00 in0.0 mm 0.00 in0.0 mm
09:38 AM 68.5°F20.3°C 56.7°F13.7°C 66% 3.1 mph E5.0 kmh E 7.6 mph12.2 kmh 30.18 in1022.0 mb 0.00 in0.0 mm 0.00 in0.0 mm 0.00 in0.0 mm
09:23 AM 67.3°F19.6°C 55.9°F13.3°C 67% Calm Calm 7.6 mph12.2 kmh 30.18 in1022.0 mb 0.00 in0.0 mm 0.00 in0.0 mm 0.00 in0.0 mm
09:08 AM 65.1°F18.4°C 57.4°F14.1°C 76% Calm Calm 7.6 mph12.2 kmh 30.18 in1022.0 mb 0.00 in0.0 mm 0.00 in0.0 mm 0.00 in0.0 mm
08:52 AM 64.2°F17.9°C 57.2°F14.0°C 78% 4.0 mph N6.4 kmh N 10.1 mph16.3 kmh 30.17 in1021.7 mb 0.00 in0.0 mm 0.00 in0.0 mm 0.00 in0.0 mm
08:37 AM 63.1°F17.3°C 56.5°F13.6°C 79% 4.5 mph N7.2 kmh N 7.6 mph12.2 kmh 30.17 in1021.7 mb 0.00 in0.0 mm 0.00 in0.0 mm 0.00 in0.0 mm
08:22 AM 62.2°F16.8°C 56.3°F13.5°C 81% 5.4 mph N8.7 kmh N 10.1 mph16.3 kmh 30.16 in1021.3 mb 0.00 in0.0 mm 0.00 in0.0 mm 0.00 in0.0 mm
08:07 AM 61.5°F16.4°C 55.9°F13.3°C 82% 7.2 mph N11.6 kmh N 10.1 mph16.3 kmh 30.15 in1021.0 mb 0.00 in0.0 mm 0.00 in0.0 mm 0.00 in0.0 mm
07:52 AM 61.2°F16.2°C 55.9°F13.3°C 83% 6.0 mph N9.7 kmh N 10.1 mph16.3 kmh 30.15 in1021.0 mb 0.00 in0.0 mm 0.00 in0.0 mm 0.00 in0.0 mm
07:37 AM 61.2°F16.2°C 55.9°F13.3°C 83% 6.0 mph N9.7 kmh N 10.1 mph16.3 kmh 30.14 in1020.7 mb 0.00 in0.0 mm 0.00 in0.0 mm 0.00 in0.0 mm
07:22 AM 61.2°F16.2°C 55.9°F13.3°C 83% 5.4 mph N8.7 kmh N 7.6 mph12.2 kmh 30.14 in1020.7 mb 0.00 in0.0 mm 0.00 in0.0 mm 0.00 in0.0 mm
07:07 AM 61.0°F16.1°C 55.0°F12.8°C 81% 6.0 mph N9.7 kmh N 10.1 mph16.3 kmh 30.14 in1020.7 mb 0.00 in0.0 mm 0.00 in0.0 mm 0.00 in0.0 mm
06:52 AM 60.8°F16.0°C 54.7°F12.6°C 80% 5.4 mph NNW8.7 kmh NNW 10.1 mph16.3 kmh 30.13 in1020.3 mb 0.00 in0.0 mm 0.00 in0.0 mm 0.00 in0.0 mm
06:37 AM 60.8°F16.0°C 55.2°F12.9°C 82% 6.9 mph N11.1 kmh N 12.5 mph20.1 kmh 30.13 in1020.3 mb 0.00 in0.0 mm 0.00 in0.0 mm 0.00 in0.0 mm
06:22 AM 61.0°F16.1°C 55.4°F13.0°C 82% 8.5 mph NNW13.7 kmh NNW 12.5 mph20.1 kmh 30.12 in1020.0 mb 0.00 in0.0 mm 0.00 in0.0 mm 0.00 in0.0 mm
06:07 AM 61.2°F16.2°C 55.9°F13.3°C 83% 7.8 mph NW12.6 kmh NW 15.0 mph24.1 kmh 30.12 in1020.0 mb 0.00 in0.0 mm 0.00 in0.0 mm 0.00 in0.0 mm
05:52 AM 61.3°F16.3°C 56.5°F13.6°C 84% 7.2 mph N11.6 kmh N 12.5 mph20.1 kmh 30.11 in1019.6 mb 0.00 in0.0 mm 0.00 in0.0 mm 0.00 in0.0 mm
05:37 AM 61.3°F16.3°C 56.1°F13.4°C 83% 7.8 mph NNW12.6 kmh NNW 12.5 mph20.1 kmh 30.11 in1019.6 mb 0.00 in0.0 mm 0.00 in0.0 mm 0.00 in0.0 mm
05:22 AM 61.5°F16.4°C 55.9°F13.3°C 82% 8.7 mph NNW14.0 kmh NNW 12.5 mph20.1 kmh 30.11 in1019.6 mb 0.00 in0.0 mm 0.00 in0.0 mm 0.00 in0.0 mm
05:06 AM 62.1°F16.7°C 57.2°F14.0°C 84% 7.2 mph NNW11.6 kmh NNW 10.1 mph16.3 kmh 30.11 in1019.6 mb 0.00 in0.0 mm 0.00 in0.0 mm 0.00 in0.0 mm
04:51 AM 62.6°F17.0°C 57.7°F14.3°C 84% 5.4 mph N8.7 kmh N 10.1 mph16.3 kmh 30.11 in1019.6 mb 0.00 in0.0 mm 0.00 in0.0 mm 0.00 in0.0 mm
04:36 AM 62.8°F17.1°C 58.3°F14.6°C 85% 4.9 mph NNW7.9 kmh NNW 10.1 mph16.3 kmh 30.10 in1019.3 mb 0.00 in0.0 mm 0.00 in0.0 mm 0.00 in0.0 mm
04:21 AM 62.6°F17.0°C 58.1°F14.5°C 85% 5.4 mph NNW8.7 kmh NNW 7.6 mph12.2 kmh 30.10 in1019.3 mb 0.00 in0.0 mm 0.00 in0.0 mm 0.00 in0.0 mm
04:06 AM 62.4°F16.9°C 57.9°F14.4°C 85% 3.8 mph NNW6.1 kmh NNW 10.1 mph16.3 kmh 30.09 in1019.0 mb 0.00 in0.0 mm 0.00 in0.0 mm 0.00 in0.0 mm
03:51 AM 62.4°F16.9°C 58.1°F14.5°C 86% 4.0 mph NNW6.4 kmh NNW 10.1 mph16.3 kmh 30.09 in1019.0 mb 0.00 in0.0 mm 0.00 in0.0 mm 0.00 in0.0 mm
03:36 AM 62.4°F16.9°C 58.1°F14.5°C 86% 5.4 mph NW8.7 kmh NW 7.6 mph12.2 kmh 30.09 in1019.0 mb 0.00 in0.0 mm 0.00 in0.0 mm 0.00 in0.0 mm
03:21 AM 62.4°F16.9°C 58.5°F14.7°C 87% 2.9 mph NW4.7 kmh NW 7.6 mph12.2 kmh 30.09 in1019.0 mb 0.00 in0.0 mm 0.00 in0.0 mm 0.00 in0.0 mm
03:06 AM 62.2°F16.8°C 58.3°F14.6°C 87% 3.4 mph N5.5 kmh N 7.6 mph12.2 kmh 30.09 in1019.0 mb 0.00 in0.0 mm 0.00 in0.0 mm 0.00 in0.0 mm
02:51 AM 62.1°F16.7°C 58.5°F14.7°C 88% 4.5 mph NNW7.2 kmh NNW 7.6 mph12.2 kmh 30.09 in1019.0 mb 0.00 in0.0 mm 0.00 in0.0 mm 0.00 in0.0 mm
02:36 AM 62.1°F16.7°C 58.5°F14.7°C 88% 5.4 mph NNW8.7 kmh NNW 10.1 mph16.3 kmh 30.10 in1019.3 mb 0.00 in0.0 mm 0.00 in0.0 mm 0.00 in0.0 mm
02:21 AM 62.2°F16.8°C 57.9°F14.4°C 86% 6.3 mph N10.1 kmh N 10.1 mph16.3 kmh 30.11 in1019.6 mb 0.00 in0.0 mm 0.00 in0.0 mm 0.00 in0.0 mm
02:06 AM 62.4°F16.9°C 58.1°F14.5°C 86% 4.9 mph NW7.9 kmh NW 10.1 mph16.3 kmh 30.11 in1019.6 mb 0.00 in0.0 mm 0.00 in0.0 mm 0.00 in0.0 mm
01:51 AM 62.6°F17.0°C 58.3°F14.6°C 86% 7.8 mph NW12.6 kmh NW 12.5 mph20.1 kmh 30.11 in1019.6 mb 0.00 in0.0 mm 0.00 in0.0 mm 0.00 in0.0 mm
01:36 AM 63.0°F17.2°C 58.6°F14.8°C 86% 7.8 mph NNW12.6 kmh NNW 12.5 mph20.1 kmh 30.10 in1019.3 mb 0.00 in0.0 mm 0.00 in0.0 mm 0.00 in0.0 mm
01:20 AM 63.3°F17.4°C 59.7°F15.4°C 88% 5.6 mph N9.0 kmh N 10.1 mph16.3 kmh 30.10 in1019.3 mb 0.00 in0.0 mm 0.00 in0.0 mm 0.00 in0.0 mm
01:05 AM 63.3°F17.4°C 59.7°F15.4°C 88% 6.0 mph NW9.7 kmh NW 10.1 mph16.3 kmh 30.11 in1019.6 mb 0.00 in0.0 mm 0.00 in0.0 mm 0.00 in0.0 mm
12:50 AM 63.5°F17.5°C 60.3°F15.7°C 89% 4.9 mph N7.9 kmh N 7.6 mph12.2 kmh 30.10 in1019.3 mb 0.00 in0.0 mm 0.00 in0.0 mm 0.00 in0.0 mm
12:35 AM 63.5°F17.5°C 60.3°F15.7°C 89% 3.8 mph NNW6.1 kmh NNW 7.6 mph12.2 kmh 30.10 in1019.3 mb 0.00 in0.0 mm 0.00 in0.0 mm 0.00 in0.0 mm
12:20 AM 63.5°F17.5°C 60.3°F15.7°C 89% 3.4 mph NNW5.5 kmh NNW 7.6 mph12.2 kmh 30.10 in1019.3 mb 0.00 in0.0 mm 0.00 in0.0 mm 0.00 in0.0 mm
12:05 AM 63.7°F17.6°C 59.7°F15.4°C 87% 3.4 mph NNW5.5 kmh NNW 7.6 mph12.2 kmh 30.09 in1019.0 mb 0.00 in0.0 mm 0.00 in0.0 mm 0.00 in0.0 mm